Regional Weather Roundup
Issued by NWS

Home | Current Version | Previous Version | Text Only | Print | Product List | Glossary On
Versions: 1 2 3 4 5 6 7 8 9 10 11 12 13 14 15 16 17 18 19 20 21 22 23 24 25 26 27 28 29 30 31 32 33 34 35 36 37 38 39 40 41 42 43 44 45 46 47 48 49 50
000
ASUS43 KFSD 242102
RWRSD

WEATHER ROUNDUP FOR SOUTH DAKOTA
NATIONAL WEATHER SERVICE SIOUX FALLS SD
400 PM CDT WED AUG 24 2016

NOTE: "FAIR" INDICATES FEW OR NO CLOUDS BELOW 12,000 FEET WITH NO
SIGNIFICANT WEATHER AND/OR OBSTRUCTIONS TO VISIBILITY.


SDZ001>005-009-010-012>017-242200-
NORTHWEST AND NORTH CENTRAL SOUTH DAKOTA

CITY           SKY/WX    TMP DP  RH WIND       PRES   REMARKS
BUFFALO          N/A     73  44  35 NW29G38   30.06F
FAITH            N/A     75  46  35 NW18G26   30.10S
MOBRIDGE       MOSUNNY   80  45  28 W17G23    30.01F
$$

SDZ012>016-024>037-041>051-057-063-072>074-242200-
SOUTHWEST AND SOUTH CENTRAL SOUTH DAKOTA

CITY           SKY/WX    TMP DP  RH WIND       PRES   REMARKS
RAPID CTY ARPT MOSUNNY   73  45  36 NE7       30.14F
PIERRE         CLOUDY    77  46  33 NW16      30.06F
CUSTER         CLOUDY    67  34  29 VRB7G16   30.22F
ELLSWORTH AFB  MOSUNNY   73  46  38 NW7G17    30.15F
PHILIP         CLOUDY    77  47  34 NW14      30.10F
PINE RIDGE     PTSUNNY   74  44  34 S3        30.15F
WINNER         FAIR      73  51  46 NW9       30.10S
$$

SDZ004>011-016>023-039-040-242200-
NORTHEAST SOUTH DAKOTA

CITY           SKY/WX    TMP DP  RH WIND       PRES   REMARKS
ABERDEEN       SUNNY     77  51  40 W12G23    30.01F
WATERTOWN      MOSUNNY   74  53  48 W14       30.03S
BROOKINGS      CLOUDY    71  56  58 NW15      30.04R
$$

SDZ017-020-022-023-036>040-048>070-242200-
SOUTHEAST SOUTH DAKOTA

CITY           SKY/WX    TMP DP  RH WIND       PRES   REMARKS
SIOUX FALLS    CLOUDY    73  58  59 N12       30.04F
HURON          CLOUDY    76  51  41 W12       30.04S
CHAMBERLAIN    CLOUDY    74  52  45 NW12      30.07F
MITCHELL       CLOUDY    76  54  46 VRB3      30.06S
YANKTON        CLOUDY    73  54  49 NW5       30.05S
$$

ABBREVIATIONS USED IN REMARKS
   TC - TEMPERATURE IN CELSIUS
  WCI - WIND CHILL INDEX
   HX - HEAT INDEX
  VSB - VISIBILITY




USA.gov is the U.S. government's official web portal to all federal, state and local government web resources and services.